�N����,����,�~����,�C��,���x,�C��,����,���ϕ���,�ő�u�ԕ���,�ő厞����,���˗�,�I�_���x,�n�����x,�ő啗���N��,DTYPE
"16/08/17","00:10",0.0,24.9,93.9,993.9,3.3,0.8,1.7,2.9,0.00,23.9,27.0,"00:06:40",1
"16/08/17","00:20",0.0,24.9,93.9,993.9,350.0,0.7,1.2,12.1,0.00,23.9,27.1,"00:12:16",1
"16/08/17","00:30",0.0,24.8,94.0,994.1,330.0,0.5,1.3,341.6,0.00,23.8,27.2,"00:28:16",1
"16/08/17","00:40",0.0,24.8,94.0,993.9,327.8,0.2,0.8,355.8,0.00,23.8,27.1,"00:38:00",1
"16/08/17","00:50",0.0,24.8,93.9,993.9,352.9,0.7,1.1,335.9,0.00,23.8,26.9,"00:40:08",1
"16/08/17","01:00",0.0,24.8,93.9,994.1,3.6,0.8,1.6,5.0,0.00,23.8,27.0,"00:52:24",1
"16/08/17","01:10",0.0,24.8,93.9,993.9,338.6,0.3,1.1,4.6,0.00,23.8,27.0,"01:01:04",1
"16/08/17","01:20",0.0,24.7,93.9,993.7,348.7,0.6,1.3,353.9,0.00,23.7,26.9,"01:17:04",1
"16/08/17","01:30",0.0,24.7,94.0,993.9,317.8,0.3,1.2,344.0,0.00,23.7,26.8,"01:20:08",1
"16/08/17","01:40",0.0,24.7,94.0,993.9,309.5,0.2,0.6,337.4,0.00,23.7,27.0,"01:32:24",1
"16/08/17","01:50",0.0,24.6,94.2,993.9,320.5,0.2,0.8,353.1,0.00,23.6,26.8,"01:49:36",1
"16/08/17","02:00",0.0,24.6,94.1,994.1,339.6,0.5,1.4,346.2,0.00,23.6,27.0,"01:51:04",1
"16/08/17","02:10",0.0,24.5,94.2,993.9,314.9,0.3,0.8,332.4,0.00,23.5,27.0,"02:03:44",1
"16/08/17","02:20",0.0,24.5,94.2,994.1,332.9,0.5,1.9,359.3,0.00,23.5,26.8,"02:11:12",1
"16/08/17","02:30",0.0,24.5,94.2,993.7,347.6,0.6,1.6,353.7,0.00,23.5,26.8,"02:21:44",1
"16/08/17","02:40",0.0,24.4,94.1,993.7,347.8,0.8,2.0,358.9,0.00,23.4,26.6,"02:32:16",1
"16/08/17","02:50",0.0,24.4,94.2,993.9,344.1,1.0,2.4,352.6,0.00,23.4,26.6,"02:47:36",1
"16/08/17","03:00",0.0,24.4,94.2,994.1,312.0,0.5,1.6,2.4,0.00,23.4,26.5,"02:50:08",1
"16/08/17","03:10",0.0,24.4,94.1,994.1,326.8,0.6,1.8,357.3,0.00,23.4,26.5,"03:07:20",1
"16/08/17","03:20",0.0,24.3,94.1,994.1,312.6,0.3,1.1,332.3,0.00,23.3,26.5,"03:10:56",1
"16/08/17","03:30",0.0,24.2,94.2,993.7,310.7,0.5,1.0,358.9,0.00,23.2,26.6,"03:26:40",1
"16/08/17","03:40",0.0,24.1,94.2,993.9,324.1,0.6,1.7,351.5,0.00,23.1,26.7,"03:37:52",1
"16/08/17","03:50",0.0,24.2,94.2,994.1,324.7,0.7,1.3,309.9,0.00,23.2,26.4,"03:42:40",1
"16/08/17","04:00",0.0,24.1,94.1,994.1,327.1,0.7,2.2,345.1,0.00,23.1,26.2,"03:54:48",1
"16/08/17","04:10",0.0,24.2,93.9,994.1,336.6,1.0,2.8,350.8,0.00,23.2,26.3,"04:02:16",1
"16/08/17","04:20",0.0,24.2,93.9,993.9,348.2,1.1,2.4,347.1,0.00,23.2,26.3,"04:10:16",1
"16/08/17","04:30",0.0,24.2,93.7,994.4,322.6,0.7,2.1,307.1,0.00,23.2,26.4,"04:23:04",1
"16/08/17","04:40",0.0,24.1,93.8,994.4,321.1,0.5,1.3,303.9,0.00,23.1,26.2,"04:33:44",1
"16/08/17","04:50",0.0,24.1,93.8,994.4,317.1,0.5,1.2,341.8,0.00,23.1,26.2,"04:48:24",1
"16/08/17","05:00",0.0,24.1,93.7,994.6,341.4,1.1,2.1,353.8,0.00,23.1,26.2,"04:53:44",1
"16/08/17","05:10",0.0,24.2,93.7,994.8,331.7,0.8,2.2,353.2,0.00,23.2,26.2,"05:03:04",1
"16/08/17","05:20",0.0,24.1,93.7,994.6,322.4,0.7,2.1,0.9,0.00,23.1,26.3,"05:10:56",1
"16/08/17","05:30",0.0,24.2,93.7,994.6,313.8,0.6,1.8,346.8,0.00,23.2,26.1,"05:26:08",1
"16/08/17","05:40",0.0,24.3,93.5,994.6,330.0,0.7,1.7,338.4,0.00,23.2,26.1,"05:34:48",1
"16/08/17","05:50",0.0,24.3,93.3,994.8,337.4,1.0,1.9,347.2,0.00,23.2,26.3,"05:48:08",1
"16/08/17","06:00",0.0,24.3,93.3,994.8,325.8,0.7,1.9,344.1,0.00,23.2,26.2,"05:58:24",1
"16/08/17","06:10",0.0,24.3,93.5,995.1,343.9,1.0,2.0,342.8,0.00,23.2,26.2,"06:05:28",1
"16/08/17","06:20",0.0,24.7,93.2,994.8,337.0,1.0,1.9,350.5,0.01,23.6,26.1,"06:18:48",1
"16/08/17","06:30",0.0,25.1,92.3,995.1,332.6,0.6,1.7,356.8,0.02,23.8,26.2,"06:21:12",1
"16/08/17","06:40",0.0,25.6,90.9,995.1,311.7,0.3,1.0,327.2,0.03,24.0,26.3,"06:37:12",1
"16/08/17","06:50",0.0,26.1,89.1,995.1,326.4,0.3,1.3,328.2,0.05,24.2,26.2,"06:40:56",1
"16/08/17","07:00",0.0,26.5,86.8,994.8,317.8,0.2,0.9,251.0,0.06,24.2,26.2,"06:54:48",1
"16/08/17","07:10",0.0,27.2,85.6,995.1,344.9,0.5,1.3,356.7,0.09,24.6,26.2,"07:02:08",1
"16/08/17","07:20",0.0,27.4,83.3,994.6,353.1,0.7,1.8,357.4,0.13,24.4,26.2,"07:18:16",1
"16/08/17","07:30",0.0,26.7,85.3,994.8,340.9,0.7,2.2,350.2,0.08,24.1,26.2,"07:29:28",1
"16/08/17","07:40",0.0,26.5,86.1,994.8,343.4,0.6,2.9,10.0,0.09,24.0,26.4,"07:39:20",1
"16/08/17","07:50",0.0,27.3,83.8,995.1,339.1,0.5,2.0,351.3,0.16,24.4,26.3,"07:42:32",1
"16/08/17","08:00",0.0,27.5,83.5,995.1,326.4,0.6,2.1,346.7,0.15,24.5,26.4,"07:59:12",1
"16/08/17","08:10",0.0,27.4,82.5,995.3,311.2,0.5,2.0,354.8,0.14,24.2,26.7,"08:08:32",1
"16/08/17","08:20",0.0,27.4,83.2,995.1,279.6,0.3,1.0,280.2,0.12,24.3,26.6,"08:11:44",1
"16/08/17","08:30",0.0,27.6,82.6,995.1,332.8,0.5,1.6,335.2,0.15,24.4,26.7,"08:28:24",1
"16/08/17","08:40",0.0,27.5,83.4,995.3,293.8,0.5,1.7,227.7,0.13,24.5,26.7,"08:31:36",1
"16/08/17","08:50",0.0,27.5,82.1,995.1,316.6,0.5,1.7,332.9,0.14,24.2,26.9,"08:46:24",1
"16/08/17","09:00",0.0,27.8,82.2,994.8,332.3,0.6,2.5,359.8,0.15,24.5,27.0,"08:59:20",1
"16/08/17","09:10",0.0,28.0,80.7,994.8,315.4,0.5,1.7,1.2,0.17,24.4,26.8,"09:01:04",1
"16/08/17","09:20",0.0,28.2,80.4,994.6,274.1,0.2,0.9,208.8,0.15,24.5,26.8,"09:13:36",1
"16/08/17","09:30",0.0,28.5,80.4,994.6,322.7,0.2,1.1,1.8,0.16,24.8,27.1,"09:21:12",1
"16/08/17","09:40",0.0,30.4,74.9,994.8,355.2,0.5,2.1,197.6,0.48,25.5,27.3,"09:37:04",1
"16/08/17","09:50",0.0,29.8,74.8,995.3,220.3,2.2,4.8,226.7,0.49,24.9,27.3,"09:49:04",1
"16/08/17","10:00",0.0,31.3,70.1,995.8,305.9,0.6,2.5,225.2,0.46,25.2,27.4,"09:51:20",1
"16/08/17","10:10",0.0,29.7,74.7,995.8,11.2,0.6,1.8,352.3,0.16,24.8,27.9,"10:03:44",1
"16/08/17","10:20",0.0,29.7,76.2,995.8,326.3,0.2,1.0,42.1,0.15,25.1,27.7,"10:16:48",1
"16/08/17","10:30",0.0,29.4,76.0,995.6,344.9,0.5,1.6,52.2,0.14,24.8,27.7,"10:23:12",1
"16/08/17","10:40",0.0,29.2,76.4,995.1,7.0,0.8,2.2,343.8,0.12,24.7,28.1,"10:39:28",1
"16/08/17","10:50",0.0,28.9,77.0,994.8,8.6,1.0,2.1,330.1,0.13,24.5,28.0,"10:42:32",1
"16/08/17","11:00",0.0,29.3,76.9,994.8,15.0,1.0,2.4,349.8,0.16,24.9,28.1,"10:58:24",1
"16/08/17","11:10",0.0,29.7,74.6,994.6,11.3,1.1,2.2,351.2,0.21,24.7,27.9,"11:05:20",1
"16/08/17","11:20",0.0,29.9,74.2,995.1,5.6,0.8,2.0,357.2,0.19,24.8,28.0,"11:18:32",1
"16/08/17","11:30",0.0,29.9,73.2,994.8,16.6,1.1,2.2,4.5,0.17,24.6,28.2,"11:29:12",1
"16/08/17","11:40",0.0,30.0,74.6,994.6,2.2,0.6,2.4,350.1,0.16,25.0,28.2,"11:32:08",1
"16/08/17","11:50",0.0,30.1,73.3,994.8,191.1,0.2,1.3,219.0,0.14,24.8,28.2,"11:49:04",1
"16/08/17","12:00",0.0,30.5,72.0,995.1,118.5,0.2,1.1,230.8,0.16,24.9,28.1,"11:55:36",1
"16/08/17","12:10",0.0,31.3,68.9,995.6,111.4,0.6,2.7,2.8,0.29,24.9,28.2,"12:07:04",1
"16/08/17","12:20",0.0,33.1,66.4,996.3,3.0,1.2,2.6,6.8,0.64,26.0,28.3,"12:16:00",1
"16/08/17","12:30",0.0,31.0,68.1,996.5,20.7,2.2,4.7,352.7,0.46,24.5,28.4,"12:20:08",1
"16/08/17","12:40",0.0,31.8,64.3,996.3,2.6,1.8,4.1,5.8,0.55,24.3,28.5,"12:30:16",1
"16/08/17","12:50",0.0,30.3,67.5,996.0,28.5,1.8,3.5,354.1,0.25,23.6,28.7,"12:42:00",1
"16/08/17","13:00",0.0,30.0,66.8,995.8,33.4,1.8,4.9,8.4,0.20,23.2,28.8,"12:59:20",1
"16/08/17","13:10",0.0,30.0,67.1,995.3,15.0,1.8,4.4,21.1,0.18,23.3,28.8,"13:00:32",1
"16/08/17","13:20",0.0,30.2,68.5,995.6,9.7,1.3,3.2,43.8,0.20,23.8,28.9,"13:14:56",1
"16/08/17","13:30",0.0,30.7,69.0,995.1,15.6,1.0,2.7,6.3,0.22,24.4,28.8,"13:25:36",1
"16/08/17","13:40",0.2,30.2,67.8,995.6,9.9,1.5,2.9,1.2,0.17,23.6,28.9,"13:34:56",1
"16/08/17","13:50",0.0,30.1,68.9,995.1,2.1,1.0,3.2,350.0,0.17,23.8,28.8,"13:40:08",1
"16/08/17","14:00",0.0,29.5,70.8,995.1,7.2,1.5,3.6,352.4,0.12,23.7,28.7,"13:50:56",1
"16/08/17","14:10",0.0,29.3,70.6,994.6,7.8,1.2,3.1,356.7,0.11,23.4,28.7,"14:08:56",1
"16/08/17","14:20",0.0,29.1,72.0,994.6,4.7,1.0,3.6,5.0,0.10,23.6,28.9,"14:12:40",1
"16/08/17","14:30",0.0,29.2,72.9,994.1,344.9,0.8,3.1,351.9,0.11,23.9,28.7,"14:26:40",1
"16/08/17","14:40",0.0,29.0,72.7,994.4,333.7,1.1,4.3,347.6,0.10,23.6,28.6,"14:33:36",1
"16/08/17","14:50",0.0,29.2,72.6,993.9,341.4,1.2,2.7,359.8,0.10,23.8,28.6,"14:46:24",1
"16/08/17","15:00",0.0,29.5,71.4,994.4,334.4,0.8,2.7,358.7,0.12,23.8,28.6,"14:56:24",1
"16/08/17","15:10",0.0,29.6,71.1,994.1,354.9,1.3,3.7,352.4,0.14,23.8,28.5,"15:08:00",1
"16/08/17","15:20",0.0,29.8,71.4,994.1,351.0,1.0,2.6,358.7,0.13,24.1,28.4,"15:10:02",1
"16/08/17","15:30",0.0,29.7,71.9,994.4,333.5,0.7,3.5,348.8,0.11,24.1,28.4,"15:25:52",1
"16/08/17","15:40",0.0,29.3,73.1,994.8,314.9,0.5,1.6,244.8,0.08,24.0,28.4,"15:32:48",1
"16/08/17","15:50",0.0,29.4,72.6,994.4,328.5,0.8,3.5,354.6,0.09,24.0,28.5,"15:47:44",1
"16/08/17","16:00",0.0,29.2,73.1,994.8,341.8,1.1,3.7,15.1,0.12,23.9,28.4,"15:55:04",1
"16/08/17","16:10",0.0,29.1,71.4,994.4,345.7,1.8,4.7,8.6,0.17,23.4,28.5,"16:07:44",1
"16/08/17","16:20",0.0,28.6,73.3,994.6,335.0,1.6,4.8,346.4,0.11,23.4,28.5,"16:18:48",1
"16/08/17","16:30",0.0,28.4,74.0,994.6,343.8,1.3,3.9,1.4,0.09,23.4,28.5,"16:25:52",1
"16/08/17","16:40",0.0,28.5,74.4,994.4,351.4,1.3,3.6,347.8,0.08,23.5,28.5,"16:31:20",1
"16/08/17","16:50",0.0,28.7,73.7,994.4,346.2,1.2,4.5,347.3,0.07,23.6,28.4,"16:42:48",1
"16/08/17","17:00",0.0,28.7,72.5,994.4,322.8,0.7,2.5,349.2,0.06,23.3,28.2,"16:56:24",1
"16/08/17","17:10",0.0,28.6,72.5,994.6,321.2,0.6,2.0,312.8,0.04,23.2,28.2,"17:01:04",1
"16/08/17","17:20",0.0,28.6,73.7,994.8,356.7,1.3,3.5,13.3,0.02,23.5,28.2,"17:10:48",1
"16/08/17","17:30",0.0,28.5,73.0,994.8,345.0,0.7,2.6,342.4,0.02,23.2,28.1,"17:21:36",1
"16/08/17","17:40",0.0,28.4,73.9,994.8,11.7,1.2,2.7,38.1,0.02,23.3,28.0,"17:36:00",1
"16/08/17","17:50",0.0,28.2,74.2,995.1,329.1,1.1,3.1,353.2,0.01,23.2,28.1,"17:41:52",1
"16/08/17","18:00",0.0,28.0,75.7,995.6,354.7,0.6,1.7,29.4,0.00,23.3,28.0,"17:56:32",1
"16/08/17","18:10",0.0,27.8,75.9,995.8,342.9,1.0,2.8,27.1,0.00,23.2,27.9,"18:06:44",1
"16/08/17","18:20",0.0,27.7,75.8,995.8,342.2,1.2,3.4,340.1,0.00,23.1,27.8,"18:12:40",1
"16/08/17","18:30",0.0,27.5,76.6,996.0,342.1,1.1,2.4,336.9,0.00,23.1,27.7,"18:25:36",1
"16/08/17","18:40",0.0,27.4,77.0,996.0,339.5,0.7,1.7,356.9,0.00,23.0,27.8,"18:36:40",1
"16/08/17","18:50",0.0,27.4,77.3,996.0,353.0,1.0,2.4,10.3,0.00,23.1,27.8,"18:42:56",1
"16/08/17","19:00",0.0,27.2,78.2,996.0,318.7,0.6,1.2,344.2,0.00,23.1,27.6,"18:52:24",1
"16/08/17","19:10",0.0,27.0,78.7,996.5,292.7,0.6,1.7,359.7,0.00,23.0,27.6,"19:08:08",1
"16/08/17","19:20",0.0,26.9,79.1,996.7,272.6,0.5,1.0,233.9,0.00,23.0,27.7,"19:16:08",1
"16/08/17","19:30",0.0,26.9,79.6,996.7,285.2,0.5,1.1,242.5,0.00,23.1,27.6,"19:27:04",1
"16/08/17","19:40",0.0,26.8,80.3,996.7,309.0,0.6,1.7,359.9,0.00,23.2,27.6,"19:32:56",1
"16/08/17","19:50",0.0,26.7,80.7,997.0,302.2,0.5,1.9,333.7,0.00,23.1,27.5,"19:43:20",1
"16/08/17","20:00",0.0,26.6,80.9,997.2,275.5,0.5,1.4,335.6,0.00,23.1,27.4,"19:53:52",1
"16/08/17","20:10",0.0,26.6,80.9,997.2,293.6,0.6,1.3,243.2,0.00,23.1,27.5,"20:03:44",1
"16/08/17","20:20",0.0,26.6,80.8,997.7,288.0,0.5,1.3,351.4,0.00,23.1,27.3,"20:12:00",1
"16/08/17","20:30",0.0,26.6,81.0,997.4,312.0,0.5,1.0,241.9,0.00,23.1,27.2,"20:20:16",1
"16/08/17","20:40",0.0,26.6,81.2,997.7,295.3,0.5,1.3,237.5,0.00,23.2,27.4,"20:32:24",1
"16/08/17","20:50",0.0,26.5,81.2,997.7,297.1,0.6,1.7,0.9,0.00,23.1,27.2,"20:41:20",1
"16/08/17","21:00",0.0,26.4,81.7,997.4,291.2,0.5,1.0,341.7,0.00,23.1,27.3,"20:58:00",1
"16/08/17","21:10",0.0,26.4,81.6,997.9,303.5,0.5,1.7,334.4,0.00,23.0,27.1,"21:00:56",1
"16/08/17","21:20",0.0,26.3,82.1,997.7,292.9,0.3,1.1,342.1,0.00,23.0,27.0,"21:14:24",1
"16/08/17","21:30",0.0,26.0,83.1,997.9,301.7,0.5,0.8,336.7,0.00,22.9,27.1,"21:24:00",1
"16/08/17","21:40",0.0,25.9,83.8,998.2,335.5,0.7,1.6,342.0,0.00,23.0,27.0,"21:37:36",1
"16/08/17","21:50",0.0,25.7,84.1,997.9,323.9,0.7,1.7,342.8,0.00,22.9,26.9,"21:40:16",1
"16/08/17","22:00",0.0,25.5,84.8,997.9,325.8,0.5,1.1,342.0,0.00,22.8,27.0,"21:56:16",1
"16/08/17","22:10",0.0,25.4,85.7,997.9,320.5,0.6,1.6,335.9,0.00,22.9,27.0,"22:01:28",1
"16/08/17","22:20",0.0,25.2,87.0,997.9,326.4,0.5,0.9,348.3,0.00,22.9,26.9,"22:16:24",1
"16/08/17","22:30",0.0,24.9,87.7,998.4,298.5,0.1,0.8,330.2,0.00,22.8,26.7,"22:25:52",1
"16/08/17","22:40",0.0,24.8,88.6,998.2,310.9,0.5,0.9,335.5,0.00,22.8,26.8,"22:34:32",1
"16/08/17","22:50",0.0,24.8,88.8,998.2,344.1,0.8,1.4,337.8,0.00,22.9,26.9,"22:43:28",1
"16/08/17","23:00",0.0,24.9,88.9,998.2,334.0,1.0,1.6,338.6,0.00,23.0,26.7,"22:50:16",1
"16/08/17","23:10",0.0,24.9,89.1,998.6,334.3,1.0,1.7,330.2,0.00,23.0,26.6,"23:02:00",1
"16/08/17","23:20",0.0,24.9,89.2,998.4,337.1,1.0,2.2,339.7,0.00,23.0,26.6,"23:14:16",1
"16/08/17","23:30",0.0,24.9,89.0,997.9,324.1,0.7,1.4,357.7,0.00,23.0,26.7,"23:21:36",1
"16/08/17","23:40",0.0,25.2,88.3,998.6,333.6,1.0,1.9,344.8,0.00,23.2,26.5,"23:38:32",1
"16/08/17","23:50",0.0,25.3,87.6,998.2,339.6,1.2,2.8,7.9,0.00,23.1,26.8,"23:44:16",1
"16/08/17","24:00",0.0,25.4,87.3,998.2,336.1,0.8,1.8,347.0,0.00,23.2,26.4,"23:54:32",1
